Year,Month,Day,Hour,Minute,Value (Times are PST for temperature in C)
2010,07,17,07,57,14.80
2010,07,17,07,58,14.80
2010,07,17,07,59,14.80
2010,07,17,08,00,14.80
2010,07,17,08,01,14.80
2010,07,17,08,02,15.00
2010,07,17,08,03,15.00
2010,07,17,08,04,15.10
2010,07,17,08,05,15.20
2010,07,17,08,06,15.30
2010,07,17,08,07,15.40
2010,07,17,08,08,15.50
2010,07,17,08,09,15.50
2010,07,17,08,10,15.60
2010,07,17,08,11,15.60
2010,07,17,08,12,15.70
2010,07,17,08,13,15.70
2010,07,17,08,14,15.80
2010,07,17,08,15,15.80
2010,07,17,08,16,15.80
2010,07,17,08,17,15.80
2010,07,17,08,18,15.80
2010,07,17,08,19,15.80
2010,07,17,08,20,15.90
2010,07,17,08,21,15.90
2010,07,17,08,22,16.00
2010,07,17,08,23,16.10
2010,07,17,08,24,16.10
2010,07,17,08,25,16.10
2010,07,17,08,26,16.10
2010,07,17,08,27,16.10
2010,07,17,08,28,16.10
2010,07,17,08,29,16.10
2010,07,17,08,30,16.00
2010,07,17,08,31,15.90
2010,07,17,08,32,15.90
2010,07,17,08,33,15.90
2010,07,17,08,34,15.90
2010,07,17,08,35,16.00
2010,07,17,08,36,16.10
2010,07,17,08,37,16.10
2010,07,17,08,38,16.10
2010,07,17,08,39,16.20
2010,07,17,08,40,16.30
2010,07,17,08,41,16.30
2010,07,17,08,42,16.40
2010,07,17,08,43,16.40
2010,07,17,08,44,16.50
2010,07,17,08,45,16.60
2010,07,17,08,46,16.60
2010,07,17,08,47,16.60
2010,07,17,08,48,16.70
2010,07,17,08,49,16.70
2010,07,17,08,50,16.60
2010,07,17,08,51,16.60
2010,07,17,08,52,16.60
2010,07,17,08,53,16.60
2010,07,17,08,54,16.60
2010,07,17,08,55,16.50
2010,07,17,08,56,16.40
2010,07,17,08,57,16.40
2010,07,17,08,58,16.40
2010,07,17,08,59,16.40
2010,07,17,09,00,16.40
2010,07,17,09,01,16.40
2010,07,17,09,02,16.40
2010,07,17,09,03,16.40
2010,07,17,09,04,16.40
2010,07,17,09,05,16.40
2010,07,17,09,06,16.50
2010,07,17,09,07,16.60
2010,07,17,09,08,16.70
2010,07,17,09,09,16.70
2010,07,17,09,10,16.70
2010,07,17,09,11,16.70
2010,07,17,09,12,16.50
2010,07,17,09,13,16.40
2010,07,17,09,14,16.40
2010,07,17,09,15,16.30
2010,07,17,09,16,16.20
2010,07,17,09,17,16.10
2010,07,17,09,18,15.90
2010,07,17,09,19,16.00
2010,07,17,09,20,16.10
2010,07,17,09,21,16.10
2010,07,17,09,22,16.10
2010,07,17,09,23,16.10
2010,07,17,09,24,16.10
2010,07,17,09,25,16.10
2010,07,17,09,26,16.10
2010,07,17,09,27,16.10
2010,07,17,09,28,16.10
2010,07,17,09,29,16.10
2010,07,17,09,30,15.90
2010,07,17,09,31,15.80
2010,07,17,09,32,15.80
2010,07,17,09,33,15.80
2010,07,17,09,34,15.90
2010,07,17,09,35,15.80
2010,07,17,09,36,15.90
2010,07,17,09,37,16.00
2010,07,17,09,38,16.10
2010,07,17,09,39,16.10
2010,07,17,09,40,16.10
2010,07,17,09,41,16.10
2010,07,17,09,42,16.00
2010,07,17,09,43,15.90
2010,07,17,09,44,15.90
2010,07,17,09,45,15.90
2010,07,17,09,46,15.90
2010,07,17,09,47,15.80
2010,07,17,09,48,15.80
2010,07,17,09,49,15.80
2010,07,17,09,50,15.80
2010,07,17,09,51,15.80
2010,07,17,09,52,15.70
2010,07,17,09,53,15.80
2010,07,17,09,54,15.80
2010,07,17,09,55,15.80
2010,07,17,09,56,15.80
2010,07,17,09,57,15.90
2010,07,17,09,58,16.00
2010,07,17,09,59,16.10
2010,07,17,10,00,16.10
2010,07,17,10,01,16.10
2010,07,17,10,02,16.10
2010,07,17,10,03,16.10
2010,07,17,10,04,16.10
2010,07,17,10,05,16.10
2010,07,17,10,06,16.10
2010,07,17,10,07,16.30
2010,07,17,10,08,16.30
2010,07,17,10,09,16.30
2010,07,17,10,10,16.30
2010,07,17,10,11,16.20
2010,07,17,10,12,16.10
2010,07,17,10,13,16.00
2010,07,17,10,14,15.90
2010,07,17,10,15,15.90
2010,07,17,10,16,15.90
2010,07,17,10,17,15.90
2010,07,17,10,18,15.90
2010,07,17,10,19,15.70
2010,07,17,10,20,15.70
2010,07,17,10,21,15.70
2010,07,17,10,22,15.60
2010,07,17,10,23,15.60
2010,07,17,10,24,15.60
2010,07,17,10,25,15.60
2010,07,17,10,26,15.60
2010,07,17,10,27,15.60
2010,07,17,10,28,15.60
2010,07,17,10,29,15.70
2010,07,17,10,30,15.80
2010,07,17,10,31,15.90
2010,07,17,10,32,16.10
2010,07,17,10,33,16.10
2010,07,17,10,34,16.10
2010,07,17,10,35,16.10
2010,07,17,10,36,16.10
2010,07,17,10,37,16.10
2010,07,17,10,38,16.10
2010,07,17,10,39,16.10
2010,07,17,10,40,16.20
2010,07,17,10,41,16.30
2010,07,17,10,42,16.40
2010,07,17,10,43,16.60
2010,07,17,10,44,16.70
2010,07,17,10,45,16.90
2010,07,17,10,46,17.00
2010,07,17,10,47,17.10
2010,07,17,10,48,17.10
2010,07,17,10,49,17.00
2010,07,17,10,50,16.90
2010,07,17,10,51,17.00
2010,07,17,10,52,17.00
2010,07,17,10,53,17.00
2010,07,17,10,54,16.90
2010,07,17,10,55,16.80
2010,07,17,10,56,16.70
2010,07,17,10,57,16.70
2010,07,17,10,58,16.80
2010,07,17,10,59,16.80
2010,07,17,11,00,16.80
2010,07,17,11,01,16.70
2010,07,17,11,02,16.80
2010,07,17,11,03,16.80
2010,07,17,11,04,16.90
2010,07,17,11,05,17.00
2010,07,17,11,06,17.10
2010,07,17,11,07,17.20
2010,07,17,11,08,17.30
2010,07,17,11,09,17.30
2010,07,17,11,10,17.30
2010,07,17,11,11,17.30
2010,07,17,11,12,17.20
2010,07,17,11,13,17.20
2010,07,17,11,14,17.20
2010,07,17,11,15,17.40
2010,07,17,11,16,17.50
2010,07,17,11,17,17.60
2010,07,17,11,18,17.70
2010,07,17,11,19,17.80
2010,07,17,11,20,17.80
2010,07,17,11,21,17.70
2010,07,17,11,22,17.70
2010,07,17,11,23,17.70
2010,07,17,11,24,17.70
2010,07,17,11,25,17.70
2010,07,17,11,26,17.70
2010,07,17,11,27,17.60
2010,07,17,11,28,17.70
2010,07,17,11,29,17.70
2010,07,17,11,30,17.60
2010,07,17,11,31,17.60
2010,07,17,11,32,17.50
2010,07,17,11,33,17.50
2010,07,17,11,34,17.40
2010,07,17,11,35,17.30
2010,07,17,11,36,17.30
2010,07,17,11,37,17.30
2010,07,17,11,38,17.30
2010,07,17,11,39,17.40
2010,07,17,11,40,17.40
2010,07,17,11,41,17.50
2010,07,17,11,42,17.40
2010,07,17,11,43,17.40
2010,07,17,11,44,17.30
2010,07,17,11,45,17.40
2010,07,17,11,46,17.40
2010,07,17,11,47,17.50
2010,07,17,11,48,17.50
2010,07,17,11,49,17.50
2010,07,17,11,50,17.50
2010,07,17,11,51,17.60
2010,07,17,11,52,17.60
2010,07,17,11,53,17.50
2010,07,17,11,54,17.30
2010,07,17,11,55,17.10
2010,07,17,11,56,17.00
2010,07,17,11,57,16.90
2010,07,17,11,58,16.80
2010,07,17,11,59,16.70
2010,07,17,12,00,16.80
2010,07,17,12,01,16.90
2010,07,17,12,02,17.10
2010,07,17,12,03,17.00
2010,07,17,12,04,17.00
2010,07,17,12,05,17.20
2010,07,17,12,06,17.10
2010,07,17,12,07,17.00
2010,07,17,12,08,16.90
2010,07,17,12,09,16.90
2010,07,17,12,10,17.00
2010,07,17,12,11,17.00
2010,07,17,12,12,17.00
2010,07,17,12,13,17.20
2010,07,17,12,14,17.20
2010,07,17,12,15,17.30
2010,07,17,12,16,17.30
2010,07,17,12,17,17.30
2010,07,17,12,18,17.30
2010,07,17,12,19,17.30
2010,07,17,12,20,17.30
2010,07,17,12,21,17.30
2010,07,17,12,22,17.30
2010,07,17,12,23,17.20
2010,07,17,12,24,17.20
2010,07,17,12,25,17.20
2010,07,17,12,26,17.20
2010,07,17,12,27,17.10
2010,07,17,12,28,17.00
2010,07,17,12,29,16.90
2010,07,17,12,30,16.90
2010,07,17,12,31,17.00
2010,07,17,12,32,17.10
2010,07,17,12,33,17.20
2010,07,17,12,34,17.30
2010,07,17,12,35,17.40
2010,07,17,12,36,17.40
2010,07,17,12,37,17.30
2010,07,17,12,38,17.30
2010,07,17,12,39,17.30
2010,07,17,12,40,17.20
2010,07,17,12,41,17.20
2010,07,17,12,42,17.20
2010,07,17,12,43,17.10
2010,07,17,12,44,17.00
2010,07,17,12,45,16.90
2010,07,17,12,46,16.80
2010,07,17,12,47,16.70
2010,07,17,12,48,16.80
2010,07,17,12,49,16.90
2010,07,17,12,50,16.90
2010,07,17,12,51,16.90
2010,07,17,12,52,16.70
2010,07,17,12,53,16.70
2010,07,17,12,54,16.50
2010,07,17,12,55,16.40
2010,07,17,12,56,16.40
2010,07,17,12,57,16.50
2010,07,17,12,58,16.60
2010,07,17,12,59,16.70
2010,07,17,13,00,16.70
2010,07,17,13,01,16.70
2010,07,17,13,02,16.70
2010,07,17,13,03,16.70
2010,07,17,13,04,16.60
2010,07,17,13,05,16.50
2010,07,17,13,06,16.40
2010,07,17,13,07,16.40
2010,07,17,13,08,16.50
2010,07,17,13,09,16.60
2010,07,17,13,10,16.60
2010,07,17,13,11,16.80
2010,07,17,13,12,16.80
2010,07,17,13,13,16.90
2010,07,17,13,14,16.90
2010,07,17,13,15,16.90
2010,07,17,13,16,16.80
2010,07,17,13,17,16.60
2010,07,17,13,18,16.50
2010,07,17,13,19,16.30
2010,07,17,13,20,16.30
2010,07,17,13,21,16.30
2010,07,17,13,22,16.40
2010,07,17,13,23,16.40
2010,07,17,13,24,16.50
2010,07,17,13,25,16.60
2010,07,17,13,26,16.70
2010,07,17,13,27,16.90
2010,07,17,13,28,17.00
2010,07,17,13,29,17.10
2010,07,17,13,30,17.20
2010,07,17,13,31,17.30
2010,07,17,13,32,17.30
2010,07,17,13,33,17.30
2010,07,17,13,34,17.40
2010,07,17,13,35,17.30
2010,07,17,13,36,17.20
2010,07,17,13,37,17.20
2010,07,17,13,38,17.10
2010,07,17,13,39,17.00
2010,07,17,13,40,16.80
2010,07,17,13,41,16.70
2010,07,17,13,42,16.70
2010,07,17,13,43,16.70
2010,07,17,13,44,16.60
2010,07,17,13,45,16.40
2010,07,17,13,46,16.40
2010,07,17,13,47,16.40
2010,07,17,13,48,16.40
2010,07,17,13,49,16.40
2010,07,17,13,50,16.30
2010,07,17,13,51,16.30
2010,07,17,13,52,16.40
2010,07,17,13,53,16.50
2010,07,17,13,54,16.60
2010,07,17,13,55,16.60
2010,07,17,13,56,16.50
2010,07,17,13,57,16.20
2010,07,17,13,58,16.10
2010,07,17,13,59,16.00
2010,07,17,14,00,15.80
2010,07,17,14,01,15.80
2010,07,17,14,02,15.80
2010,07,17,14,03,15.90
2010,07,17,14,04,16.00
2010,07,17,14,05,16.10
2010,07,17,14,06,16.30
2010,07,17,14,07,16.40
2010,07,17,14,08,16.40
2010,07,17,14,09,16.30
2010,07,17,14,10,16.30
2010,07,17,14,11,16.20
2010,07,17,14,12,16.20
2010,07,17,14,13,16.00
2010,07,17,14,14,15.90
2010,07,17,14,15,16.00
2010,07,17,14,16,16.10
2010,07,17,14,17,16.10
2010,07,17,14,18,16.00
2010,07,17,14,19,16.10
2010,07,17,14,20,16.20
2010,07,17,14,21,16.20
2010,07,17,14,22,16.10
2010,07,17,14,23,16.10
2010,07,17,14,24,16.00
2010,07,17,14,25,15.90
2010,07,17,14,26,15.90
2010,07,17,14,27,15.90
2010,07,17,14,28,15.80
2010,07,17,14,29,15.80
2010,07,17,14,30,15.80
2010,07,17,14,31,15.70
2010,07,17,14,32,15.70
2010,07,17,14,33,15.70
2010,07,17,14,34,15.80
2010,07,17,14,35,15.80
2010,07,17,14,36,15.90
2010,07,17,14,37,15.90
2010,07,17,14,38,15.90
2010,07,17,14,39,15.80
2010,07,17,14,40,15.70
2010,07,17,14,41,15.70
2010,07,17,14,42,15.90
2010,07,17,14,43,16.10
2010,07,17,14,44,16.20
2010,07,17,14,45,16.40
2010,07,17,14,46,16.40
2010,07,17,14,47,16.40
2010,07,17,14,48,16.50
2010,07,17,14,49,16.60
2010,07,17,14,50,16.70
2010,07,17,14,51,16.70
2010,07,17,14,52,16.60
2010,07,17,14,53,16.40
2010,07,17,14,54,16.40
2010,07,17,14,55,16.20
2010,07,17,14,56,16.10
2010,07,17,14,57,15.90
2010,07,17,14,58,15.70
2010,07,17,14,59,15.40
2010,07,17,15,00,15.20
2010,07,17,15,01,15.00
2010,07,17,15,02,14.80
2010,07,17,15,03,14.70
2010,07,17,15,04,14.60
2010,07,17,15,05,14.60
2010,07,17,15,06,14.50
2010,07,17,15,07,14.60
2010,07,17,15,08,14.50
2010,07,17,15,09,14.50
2010,07,17,15,10,14.60
2010,07,17,15,11,14.60
2010,07,17,15,12,14.80
2010,07,17,15,13,15.00
2010,07,17,15,14,15.10
2010,07,17,15,15,15.10
2010,07,17,15,16,15.00
2010,07,17,15,17,14.90
2010,07,17,15,18,14.90
2010,07,17,15,19,15.00
2010,07,17,15,20,15.00
2010,07,17,15,21,15.00
2010,07,17,15,22,15.00
2010,07,17,15,23,15.10
2010,07,17,15,24,15.20
2010,07,17,15,25,15.30
2010,07,17,15,26,15.40
2010,07,17,15,27,15.60
2010,07,17,15,28,15.80
2010,07,17,15,29,15.80
2010,07,17,15,30,15.80
2010,07,17,15,31,15.80
2010,07,17,15,32,15.80
2010,07,17,15,33,15.80
2010,07,17,15,34,15.90
2010,07,17,15,35,15.90
2010,07,17,15,36,15.90
2010,07,17,15,37,15.90
2010,07,17,15,38,15.90
2010,07,17,15,39,15.90
2010,07,17,15,40,15.80
2010,07,17,15,41,15.80
2010,07,17,15,42,15.80
2010,07,17,15,43,15.80
2010,07,17,15,44,15.80
2010,07,17,15,45,15.80
2010,07,17,15,46,15.80
2010,07,17,15,47,15.80
2010,07,17,15,48,15.90
2010,07,17,15,49,16.00
2010,07,17,15,50,16.10
2010,07,17,15,51,16.10
2010,07,17,15,52,16.10
2010,07,17,15,53,16.10
2010,07,17,15,54,16.10
2010,07,17,15,55,16.10
2010,07,17,15,56,16.20
2010,07,17,15,57,16.20
2010,07,17,15,58,16.20
2010,07,17,15,59,16.10
2010,07,17,16,00,16.20
2010,07,17,16,01,16.30
2010,07,17,16,02,16.30
2010,07,17,16,03,16.40
2010,07,17,16,04,16.50
2010,07,17,16,05,16.60
2010,07,17,16,06,16.70
2010,07,17,16,07,16.70
2010,07,17,16,08,16.80
2010,07,17,16,09,17.00
2010,07,17,16,10,17.10
2010,07,17,16,11,17.30
2010,07,17,16,12,17.40
2010,07,17,16,13,17.50
2010,07,17,16,14,17.50
2010,07,17,16,15,17.60
2010,07,17,16,16,17.50
2010,07,17,16,17,17.40
2010,07,17,16,18,17.40
2010,07,17,16,19,17.40
2010,07,17,16,20,17.40
2010,07,17,16,21,17.40
2010,07,17,16,22,17.50
2010,07,17,16,23,17.50
2010,07,17,16,24,17.60
2010,07,17,16,25,17.60
2010,07,17,16,26,17.50
2010,07,17,16,27,17.60
2010,07,17,16,28,17.60
2010,07,17,16,29,17.70
2010,07,17,16,30,17.70
2010,07,17,16,31,17.90
2010,07,17,16,32,17.90
2010,07,17,16,33,17.80
2010,07,17,16,34,17.70
2010,07,17,16,35,17.70
2010,07,17,16,36,17.80
2010,07,17,16,37,17.90
2010,07,17,16,38,17.90
2010,07,17,16,39,17.90
2010,07,17,16,40,18.00
2010,07,17,16,41,18.10
2010,07,17,16,42,18.20
2010,07,17,16,43,18.20
2010,07,17,16,44,18.10
2010,07,17,16,45,17.90
2010,07,17,16,46,17.80
2010,07,17,16,47,17.80
2010,07,17,16,48,17.90
2010,07,17,16,49,17.90
2010,07,17,16,50,17.90
2010,07,17,16,51,17.90
2010,07,17,16,52,17.90
2010,07,17,16,53,17.90
2010,07,17,16,54,17.90
2010,07,17,16,55,17.90
2010,07,17,16,56,17.80
2010,07,17,16,57,17.90
2010,07,17,16,58,17.90
2010,07,17,16,59,18.00
2010,07,17,17,00,18.10
2010,07,17,17,01,18.20
2010,07,17,17,02,18.20
2010,07,17,17,03,18.20
2010,07,17,17,04,18.20
2010,07,17,17,05,18.20
2010,07,17,17,06,18.10
2010,07,17,17,07,18.00
2010,07,17,17,08,17.80
2010,07,17,17,09,17.70
2010,07,17,17,10,17.70
2010,07,17,17,11,17.60
2010,07,17,17,12,17.50
2010,07,17,17,13,17.30
2010,07,17,17,14,17.30
2010,07,17,17,15,17.30
2010,07,17,17,16,17.30
2010,07,17,17,17,17.30
2010,07,17,17,18,17.40
2010,07,17,17,19,17.40
2010,07,17,17,20,17.40
2010,07,17,17,21,17.40
2010,07,17,17,22,17.50
2010,07,17,17,23,17.50
2010,07,17,17,24,17.60
2010,07,17,17,25,17.50
2010,07,17,17,26,17.50
2010,07,17,17,27,17.60
2010,07,17,17,28,17.60
2010,07,17,17,29,17.50
2010,07,17,17,30,17.40
2010,07,17,17,31,17.30
2010,07,17,17,32,17.30
2010,07,17,17,33,17.40
2010,07,17,17,34,17.50
2010,07,17,17,35,17.50
2010,07,17,17,36,17.60
2010,07,17,17,37,17.70
2010,07,17,17,38,17.70
2010,07,17,17,39,17.70
2010,07,17,17,40,17.80
2010,07,17,17,41,17.90
2010,07,17,17,42,17.80
2010,07,17,17,43,17.80
2010,07,17,17,44,17.80
2010,07,17,17,45,17.80
2010,07,17,17,46,17.80
2010,07,17,17,47,17.80
2010,07,17,17,48,17.80
2010,07,17,17,49,17.80
2010,07,17,17,50,17.80
2010,07,17,17,51,17.80
2010,07,17,17,52,17.80
2010,07,17,17,53,17.80
2010,07,17,17,54,17.70
2010,07,17,17,55,17.60
2010,07,17,17,56,17.60
2010,07,17,17,57,17.60
2010,07,17,17,58,17.60
2010,07,17,17,59,17.70
2010,07,17,18,00,17.70
2010,07,17,18,01,17.70
2010,07,17,18,02,17.70
2010,07,17,18,03,17.60
2010,07,17,18,04,17.50
2010,07,17,18,05,17.40
2010,07,17,18,06,17.40
2010,07,17,18,07,17.40
2010,07,17,18,08,17.40
2010,07,17,18,09,17.30
2010,07,17,18,10,17.30
2010,07,17,18,11,17.30
2010,07,17,18,12,17.10
2010,07,17,18,13,17.00
2010,07,17,18,14,17.00
2010,07,17,18,15,16.90
2010,07,17,18,16,16.80
2010,07,17,18,17,16.80
2010,07,17,18,18,16.70
2010,07,17,18,19,16.70
2010,07,17,18,20,16.50
2010,07,17,18,21,16.30
2010,07,17,18,22,16.20
2010,07,17,18,23,16.10
2010,07,17,18,24,15.90
2010,07,17,18,25,15.70
2010,07,17,18,26,15.60
2010,07,17,18,27,15.50
2010,07,17,18,28,15.50
2010,07,17,18,29,15.40
2010,07,17,18,30,15.30
2010,07,17,18,31,15.30
2010,07,17,18,32,15.30
2010,07,17,18,33,15.20
2010,07,17,18,34,15.20
2010,07,17,18,35,15.20
2010,07,17,18,36,15.10
2010,07,17,18,37,15.00
2010,07,17,18,38,14.90
2010,07,17,18,39,14.80
2010,07,17,18,40,14.80
2010,07,17,18,41,14.80
2010,07,17,18,42,14.80
2010,07,17,18,43,14.80
2010,07,17,18,44,14.80
2010,07,17,18,45,14.70
2010,07,17,18,46,14.60
2010,07,17,18,47,14.60
2010,07,17,18,48,14.60
2010,07,17,18,49,14.60
2010,07,17,18,50,14.60
2010,07,17,18,51,14.70
2010,07,17,18,52,14.70
2010,07,17,18,53,14.80
2010,07,17,18,54,14.80
2010,07,17,18,55,14.90
2010,07,17,18,56,14.90
2010,07,17,18,57,15.00
2010,07,17,18,58,15.00
2010,07,17,18,59,15.10
2010,07,17,19,00,15.20
2010,07,17,19,01,15.20
2010,07,17,19,02,15.20
2010,07,17,19,03,15.20
2010,07,17,19,04,15.20
2010,07,17,19,05,15.30
2010,07,17,19,06,15.30
2010,07,17,19,07,15.30
2010,07,17,19,08,15.30
2010,07,17,19,09,15.30
2010,07,17,19,10,15.30
2010,07,17,19,11,15.30
2010,07,17,19,12,15.30
2010,07,17,19,13,15.20
2010,07,17,19,14,15.20
2010,07,17,19,15,15.20
2010,07,17,19,16,15.20
2010,07,17,19,17,15.10
2010,07,17,19,18,15.10
2010,07,17,19,19,15.10
2010,07,17,19,20,15.10
2010,07,17,19,21,15.20
2010,07,17,19,22,15.20
2010,07,17,19,23,15.30
2010,07,17,19,24,15.30
2010,07,17,19,25,15.30
2010,07,17,19,26,15.40
2010,07,17,19,27,15.50
2010,07,17,19,28,15.50
2010,07,17,19,29,15.60
2010,07,17,19,30,15.70
2010,07,17,19,31,15.80
2010,07,17,19,32,15.80
2010,07,17,19,33,15.80
2010,07,17,19,34,15.90
2010,07,17,19,35,16.00
2010,07,17,19,36,16.10
2010,07,17,19,37,16.10
2010,07,17,19,38,16.20
2010,07,17,19,39,16.20
2010,07,17,19,40,16.30
2010,07,17,19,41,16.40
2010,07,17,19,42,16.40
2010,07,17,19,43,16.50
2010,07,17,19,44,16.60
2010,07,17,19,45,16.70
2010,07,17,19,46,16.70
2010,07,17,19,47,16.80
2010,07,17,19,48,16.90
2010,07,17,19,49,16.90
2010,07,17,19,50,17.00
2010,07,17,19,51,17.00
2010,07,17,19,52,17.00
2010,07,17,19,53,17.00
2010,07,17,19,54,17.10
2010,07,17,19,55,17.10
2010,07,17,19,56,17.20
2010,07,17,19,57,17.30
2010,07,17,19,58,17.40
2010,07,17,19,59,17.50
2010,07,17,20,00,17.60
2010,07,17,20,01,17.70
2010,07,17,20,02,17.90
2010,07,17,20,03,17.90
2010,07,17,20,04,18.00
2010,07,17,20,05,18.10
2010,07,17,20,06,18.20
2010,07,17,20,07,18.30
2010,07,17,20,08,18.40
2010,07,17,20,09,18.40
2010,07,17,20,10,18.50
2010,07,17,20,11,18.50
2010,07,17,20,12,18.60
2010,07,17,20,13,18.60
2010,07,17,20,14,18.70
2010,07,17,20,15,18.70
2010,07,17,20,16,18.70
2010,07,17,20,17,18.70
2010,07,17,20,18,18.70
2010,07,17,20,19,18.70
2010,07,17,20,20,18.70
2010,07,17,20,21,18.70
2010,07,17,20,22,18.60
2010,07,17,20,23,18.60
2010,07,17,20,24,18.60
2010,07,17,20,25,18.50
2010,07,17,20,26,18.50
2010,07,17,20,27,18.50
2010,07,17,20,28,18.50
2010,07,17,20,29,18.50
2010,07,17,20,30,18.50
2010,07,17,20,31,18.50
2010,07,17,20,32,18.50
2010,07,17,20,33,18.40
2010,07,17,20,34,18.40
2010,07,17,20,35,18.40
2010,07,17,20,36,18.40
2010,07,17,20,37,18.40
2010,07,17,20,38,18.40
2010,07,17,20,39,18.30
2010,07,17,20,40,18.30
2010,07,17,20,41,18.30
2010,07,17,20,42,18.30
2010,07,17,20,43,18.30
2010,07,17,20,44,18.30
2010,07,17,20,45,18.30
2010,07,17,20,46,18.20
2010,07,17,20,47,18.20
2010,07,17,20,48,18.20
2010,07,17,20,49,18.20
2010,07,17,20,50,18.20
2010,07,17,20,51,18.20
2010,07,17,20,52,18.20
2010,07,17,20,53,18.20
2010,07,17,20,54,18.20
2010,07,17,20,55,18.20
